Lid_Strength_Index
8 7 7 8 8 8 8 8 10 8 8 6 5 5 4 4 4 4 4 3 3 3 2 2 2 2 1 1 1 1 1 1 1 0 0 -0 0 -0 -0 -0 -0 -0 -0 -0
9 8 8 9 8 7 7 7 7 7 7 5 4 5 5 5 5 5 5 4 4 3 3 2 2 2 2 1 1 1 1 1 1 0 0 0 0 0 0 0 -0 -0 0 -0
11 8 8 11 8 8 7 7 7 9 6 5 6 6 6 6 5 5 5 4 4 4 3 2 2 2 2 1 1 1 1 1 1 1 1 1 0 0 0 0 0 0 0 0
11 9 15 8 5 6 7 7 6 6 6 6 6 5 5 4 5 5 4 4 4 3 3 2 1 1 1 1 1 1 1 1 1 1 1 1 1 1 1 0 1 1 0 0
11 11 9 8 7 8 9 9 7 7 7 6 6 5 6 4 4 4 3 3 3 2 2 2 2 1 1 1 1 1 2 1 1 1 1 1 1 1 1 1 1 1 0 0
10 13 14 10 7 5 6 11 6 6 6 6 6 10 7 4 3 3 3 2 2 2 2 2 2 1 2 2 2 2 2 1 1 1 1 1 1 1 1 0 1 1 1 0
10 11 9 7 5 5 12 11 6 6 6 6 7 6 5 4 4 3 3 2 2 2 2 2 1 1 2 2 3 2 1 1 1 1 1 1 0 0 1 1 1 1 1 0
10 12 14 5 6 9 8 5 5 5 5 5 5 4 4 3 3 3 3 2 2 2 2 1 1 1 2 2 1 1 1 1 1 1 1 1 1 1 1 1 1 1 1 1
9 9 5 4 5 4 4 5 4 4 4 4 4 4 3 4 3 3 3 2 2 2 2 1 1 1 2 1 1 1 1 1 1 1 1 2 2 2 2 1 2 2 2 3
7 6 5 4 3 3 3 4 3 3 3 3 4 3 3 3 3 3 2 2 2 2 2 2 1 1 1 1 1 1 1 1 1 1 2 2 1 1 2 2 2 2 3 5
7 6 5 4 4 4 3 3 3 3 3 3 3 3 3 3 3 2 2 2 1 2 2 2 1 1 0 0 0 1 1 1 2 2 2 2 2 2 2 1 2 2 2 3
10 6 7 6 4 3 4 4 3 3 3 3 3 3 2 3 2 2 2 2 2 2 1 1 1 1 0 0 0 1 2 2 2 1 2 2 2 2 10 11 13 14 13 4
8 5 5 5 4 3 4 4 3 3 3 3 3 2 2 3 2 2 2 2 2 2 1 1 1 1 -0 -0 0 1 1 1 1 2 1 2 2 2 3 4 11 12 14 13
4 5 6 5 6 4 4 3 3 3 3 3 3 2 2 3 2 2 2 2 1 1 1 1 1 1 -0 -0 -0 0 0 5 1 1 1 1 2 2 2 2 2 2 9 10
5 4 5 4 4 4 4 4 4 4 3 3 3 3 3 3 3 2 2 1 1 1 1 1 1 1 -0 -0 0 1 1 1 1 1 1 2 1 1 2 2 2 2 1 6
5 5 5 5 5 5 5 5 5 5 4 4 4 4 3 3 2 2 2 1 2 3 2 1 1 0 -0 -0 0 1 1 2 2 1 1 1 1 2 2 2 2 2 2 2
6 7 6 6 5 5 5 4 5 5 5 4 4 3 3 3 3 3 2 1 1 1 1 1 1 0 0 0 0 1 1 1 2 1 1 1 1 2 2 2 2 2 2 1
4 4 5 6 6 7 7 6 6 5 5 4 4 3 4 4 4 3 3 2 2 2 1 1 0 0 0 0 0 0 1 1 1 1 1 1 1 1 2 2 2 2 1 2
4 5 6 6 7 7 7 7 6 6 5 4 4 3 3 3 3 3 3 3 3 3 2 1 1 1 1 0 1 1 1 1 1 1 1 2 2 1 2 2 2 2 2 1
5 5 6 7 7 7 7 6 6 6 5 5 5 4 4 3 3 3 3 3 3 2 1 1 0 1 1 0 1 1 1 1 1 1 1 2 2 2 2 4 2 2 2 1
5 5 5 6 6 5 5 6 6 7 6 6 6 6 5 4 3 3 4 4 2 1 1 1 1 1 1 1 1 1 1 1 1 1 2 2 2 2 2 2 2 2 2 2
4 4 3 3 3 5 5 6 6 7 7 7 6 6 6 5 5 4 3 3 2 3 2 1 1 1 1 1 1 1 1 1 1 1 1 1 2 1 2 2 2 2 2 2
4 4 3 3 3 3 3 4 5 7 7 7 7 7 7 6 6 7 6 4 2 2 2 1 2 3 3 1 1 1 1 1 1 1 1 1 1 1 1 1 2 2 2 1
3 3 3 3 3 2 3 2 3 5 6 7 7 6 7 8 7 6 5 6 6 5 4 4 2 4 4 1 1 1 1 1 1 1 1 5 1 1 1 1 1 1 1 1
3 3 3 3 3 3 2 2 2 3 5 5 6 6 6 7 7 7 7 6 7 6 5 6 5 3 1 1 1 1 1 0 1 1 1 1 1 1 1 1 1 1 1 1
3 4 4 3 4 3 3 3 3 3 3 3 2 4 5 5 6 6 5 7 7 7 7 6 6 6 6 6 6 6 6 5 4 2 1 1 1 1 1 1 1 1 1 1
3 5 4 4 4 4 4 4 3 3 4 3 3 2 2 2 3 5 5 5 7 7 7 7 7 7 6 6 6 6 6 6 8 6 7 7 6 4 4 3 3 3 3 4